256  
ASUS41 KOKX 230714  
RWROKX  
 
REGIONAL WEATHER ROUNDUP  
NATIONAL WEATHER SERVICE NEW YORK NY  
300 AM EDT FRI APR 23 2021  
 
NOTE: "FAIR" INDICATES FEW OR NO CLOUDS BELOW 12,000 FEET WITH NO  
SIGNIFICANT WEATHER AND/OR S TO VISIBILITY
.  
 
NYZ071-072-176-178-NJZ106-104-230800-  
NEW YORK CITY METRO AREA  
 
CITY SKY/WX TMP DP RH WIND PRES REMARKS
 
CENTRAL PARK CLOUDY 42 23 46 VRB6 29.99S  
BRONX LEHMAN C N/A 41 27 56 W12G24 N/A  
LAGUARDIA ARPT CLOUDY 43 24 47 NW13 29.97S  
QUEENS COLLEGE N/A 41 25 52 W14 N/A  
KENNEDY INTL PTCLDY 41 22 46 NW14 29.98S  
BREEZY POINT N/A 41 N/A N/A W14G24 N/A  
BROOKLYN COLL N/A 43 23 45 W13 N/A  
STATEN ISLAND N/A 41 23 48 W13 N/A  
NEWARK/LIBERTY MOCLDY 43 21 41 W12 29.98S  
TETERBORO CLOUDY 40 24 53 NW8 29.97S WCI 34  

 
 
NYZ177-179-078>081-230800-  
LONG ISLAND NEW YORK  
 
CITY SKY/WX TMP DP RH WIND PRES REMARKS
 
JONES BEACH N/A 41 N/A N/A NW20G25 N/A  
WANTAGH N/A 41 23 48 W9 N/A  
HEMPSTEAD NOT AVBL  
MATINECOCK PT N/A 41 N/A N/A W20 N/A  
FARMINGDALE PTCLDY 41 21 44 NW12G20 29.96S  
MACARTHUR/ISP PTCLDY 40 22 48 W13 29.95S WCI 32  
SHIRLEY PTCLDY 41 21 44 NW14G22 29.95S  
MT SINAI HARB N/A 41 N/A N/A W9G17 N/A  
WESTHAMPTON CLOUDY 41 21 44 W16G25 29.95F  
EAST HAMPTON FAIR 39 23 52 W13G22 29.92F WCI 32  
SOUTHOLD N/A 39 27 60 W12G25 N/A WCI 32  
MONTAUK N/A 42 26 53 W15G26 29.92S  

 
 
NYZ052-065-067-230800-  
HUDSON VALLEY  
 
CITY SKY/WX TMP DP RH WIND PRES REMARKS
 
WHITE PLAINS PTCLDY 37 22 54 W14 29.93S WCI 28  
LARCHMONT HARB N/A 39 N/A N/A W15G21 N/A WCI 31  
CROTON ON HUDS N/A 39 N/A N/A W15 N/A WCI 31  
SOMERS N/A 36 23 60 W6 N/A WCI 31  
BREWSTER N/A 34 25 69 NW10G22 N/A WCI 26  
NEWBURGH NOT AVBL  
MONTGOMERY CLEAR 35 20 54 W9 29.94S WCI 28  
OTISVILLE N/A 34 21 60 W7 N/A WCI 28  
WARWICK N/A 36 27 69 W9 N/A WCI 29  
SUFFERN N/A 36 25 64 W7 N/A WCI 30  
POUGHKEEPSIE CLEAR 37 21 52 W10 29.93R WCI 30  
ALBANY CLEAR 33 22 63 W9G18 29.87S WCI 25  

 
 
NJZ001-105-106-008-010-013-015-019>022-104-230800-  
NEW JERSEY  
 
CITY SKY/WX TMP DP RH WIND PRES REMARKS
 
NEWARK/LIBERTY MOCLDY 43 21 41 W12 29.98S  
TETERBORO CLOUDY 40 24 53 NW8 29.97S WCI 34  
CALDWELL CLOUDY 42 23 46 NW13 29.98R  
SOMERVILLE CLOUDY 41 22 46 VRB7 29.97S  
LINDEN FAIR 40 20 44 NW10 29.99S WCI 34  
PERTH AMBOY N/A 39 N/A N/A W9 N/A WCI 33  
SUSSEX PTCLDY 37 24 59 W8 29.97R WCI 31  
ANDOVER N/A 38 24 57 VRB3 29.98R  
TRENTON MOCLDY 40 20 44 W8 30.00S WCI 34  
MILLVILLE CLEAR 36 25 64 W7 30.06S WCI 30  
ATLANTIC CITY CLEAR 40 20 44 W10 30.04F WCI 33  
WRIGHTSTOWN MOCLDY 40 19 44 W9 30.01 WCI 33  
TOMS RIVER PTCLDY 31 21 66 SW5 30.02S WCI 26  
BELMAR CLEAR 39 20 46 W9 30.01S WCI 33  

 
 
PAZ047>061-062-071-230800-  
EASTERN PENNSYLVANIA  
 
CITY SKY/WX TMP DP RH WIND PRES REMARKS
 
PHILADELPHIA PTCLDY 39 21 48 W12 30.04F WCI 32  
ALLENTOWN CLOUDY 40 22 48 W10G20 30.00S WCI 33  
SCRANTON CLOUDY 36 27 69 N3 29.98R  

 
 
CTZ002-004>006-009-010-012-RIZ004-006-007-MAZ004-011-015-230800-  
SOUTHERN NEW ENGLAND  
 
IN CT  
 
CITY SKY/WX TMP DP RH WIND PRES REMARKS
 
BRADLEY INTL PTCLDY 38 18 44 W14 29.87S WCI 30  
HARTFORD PTCLDY 38 23 55 W8 29.90R WCI 32  
DANBURY CLEAR 37 23 56 W6 29.93S WCI 32  
WTRBURY/OXFORD CLEAR 34 26 72 W7 29.90S WCI 28  
NORWALK HARBOR N/A 39 N/A N/A W15G21 N/A WCI 31  
BRIDGEPORT CLEAR 40 24 53 W12G18 29.93F WCI 33  
MERIDEN CLEAR 37 24 59 VRB3 29.91S  
NEW HAVEN CLEAR 41 27 57 VRB7 29.92S  
CHESTER FAIR 36 25 64 W7G14 29.89S WCI 30  
GROTON CLEAR 38 25 59 W12G22 29.90S WCI 30  
WILLIMANTIC CLEAR 36 20 52 W6 29.88S WCI 31  
 
IN RI  
 
CITY SKY/WX TMP DP RH WIND PRES REMARKS
 
PROVIDENCE CLEAR 38 20 48 W13 29.86F WCI 30  
BLOCK ISLAND CLEAR 39 23 52 W17G26 29.90F WCI 30  
WESTERLY CLEAR 36 23 59 W10G18 29.90R WCI 28  
 
IN MA  
 
CITY SKY/WX TMP DP RH WIND PRES REMARKS
 
BOSTON PTCLDY 39 20 46 W17G29 29.79S WCI 30  
WORCESTER CLEAR 33 19 56 W21G26 29.78F WCI 21  
WESTFIELD CLEAR 35 21 56 W9 29.86S WCI 28  
PROVINCETOWN CLEAR 39 24 55 W24G30 29.80F WCI 28  
NANTUCKET CLEAR 40 21 46 W17G32 29.84S WCI 31  

 
 
ANZ330-335-338-340-345-350-353-355-230800-  
COASTAL MARINE OBSERVATIONS  
 
 
STATION/POSITION TIME SKY/WX TEMP WIND PRES VSBY WAVE
 
AIR SEA DIR/SP/G HT/PER  
(UTC) (F) (DEG/KT/KT) (MB) (MI) (FT/S)  
NY HARB ENTRANCE 0650 46 280/ 19/ 23 1014.6 3/ 3  
20 S FIRE ISLAND 0650 46 280/ 23/ 27 1014.2 5/ 5  
GREAT SOUTH BAY 0630 44 52 290/ 17/ 23 N/A  
23 SSW MONTAUK P 0650 43 47 290/ 23/ 31 1013.8 5/ 6  
15 E BARNEGAT LI 0656 48 N/A 4/ 5  
HUDSON CANYON NOT AVBL  
KINGS POINT 0630 42 350/ 14/ 17 1015.7  
EXECUTION ROCKS NOT AVBL  
WESTERN LI SOUND NOT AVBL  
CENTRAL LI SOUND 0600 42 45 260/ 21/ 27 N/A 4/ 4  
ROBBINS REEF 0630 42 290/ 13/ 16 1015.0  

 
 
>>>>>>>>>>>>>>>>>>>>>>>>>>>> KEY <<<<<<<<<<<<<<<<<<<<<<<<<<<  
> <  
> SKY/WX - SKY CONDITION/PRESENT WEATHER <  
> TMP - TEMPERATURE IN FAHRENHEIT <  
> DP - DEW POINT IN FAHRENHEIT <  
> RH - RELATIVE HUMIDITY IN PERCENT <  
> WIND - DIRECTION (FROM) AND SPEED IN MPH <  
> PRES - MEAN SEA LEVEL PRESSURE (INCHES OF HG) <  
> WCI - WIND CHILL INDEX <  
> VSB - VISIBILITY IN MILES <  
> HX - HEAT INDEX <  
> TC - TEMPERATURE IN CELSIUS <  
> VRB - VARIABLE WIND DIRECTION <  
> <  
>>>>>>>>>>>>>>>>>>>>>>>>>>>> KEY <<<<<<<<<<<<<<<<<<<<<<<<<<<  
 
 
CLICK HERE TO GO TO PREVIOUS BULLETINS.

The Nexlab NY Page
The Nexlab NJ Page
The Nexlab CT Page Main Text Page